Altoona, PA

6:50 PM EDT on October 13, 2019 (GMT -0400)
Altoona-Blair County

Weather History for KAOO - August, 2019

Change the Weather History Date:

Sunday, August 11, 2019

  Actual Average Record
Temperature  
Mean Temperature 65 °F 70 °F  
Max Temperature 79 °F 81 °F 95 °F (1988)
Min Temperature 51 °F 59 °F 49 °F (1982)
Degree Days  
Heating Degree Days 0 1  
Month to date heating degree days 0 3  
Since 1 June heating degree days 38 71  
Since 1 July heating degree days 0 13  
Cooling Degree Days 0 6  
Month to date cooling degree days 67 66  
Year to date cooling degree days 529 393  
Since 1 June cooling degree days 460 360  
Growing Degree Days 15 (Base 50)    
Moisture  
Dew Point 52 °F    
Average Humidity 64    
Maximum Humidity 89    
Minimum Humidity 38    
Precipitation  
Precipitation 0.00 in 0.09 in 1.92 in (1979)
Month to date precipitation 1.03 1.03  
Year to date precipitation 27.93 21.95  
Sea Level Pressure  
Sea Level Pressure 30.08 in    
Wind  
Wind Speed 3 mph (NNW)    
Max Wind Speed 12 mph    
Max Gust Speed 18 mph    
Visibility 10 miles    
Events      
T = Trace of Precipitation, MM = Missing Value Source: NWS Daily Summary

Daily Weather History Graph

Daily Weather History Graph

Search for Another Location

Airport or City:

Astronomy

Aug. 11, 2019 Rise Set
Actual Time 6:20 AM EDT 8:16 PM EDT
Civil Twilight 5:50 AM EDT 8:45 PM EDT
Nautical Twilight 5:14 AM EDT 9:21 PM EDT
Astronomical Twilight 4:35 AM EDT 10:00 PM EDT
Moon 5:53 PM EDT (8/11) 2:39 AM EDT (8/11)
Length of Visible Light 14h 54m
Length of Day
13h 55m
Waxing Gibbous, 87% of the Moon is Illuminated
Aug 11
Waxing Gibbous
Aug 15
Full
Aug 23
Last Quarter
Aug 30
New
Sep 5
First Quarter

Hourly Weather History & Observations

Time (EDT) Temp. Dew Point Humidity Pressure Visibility Wind Dir Wind Speed Gust Speed Precip Events Conditions
12:53 AM 57.0 °F 52.0 °F 83% 30.05 in 10.0 mi SSE 3.5 mph - N/A   Clear
1:53 AM 59.0 °F 51.1 °F 75% 30.05 in 10.0 mi West 4.6 mph - N/A   Clear
2:53 AM 55.0 °F 51.1 °F 86% 30.05 in 10.0 mi WSW 4.6 mph - N/A   Clear
3:53 AM 55.0 °F 51.1 °F 86% 30.05 in 10.0 mi Calm Calm - N/A   Clear
4:53 AM 53.1 °F 48.9 °F 86% 30.06 in 10.0 mi Calm Calm - N/A   Clear
5:53 AM 51.1 °F 48.0 °F 89% 30.08 in 10.0 mi Calm Calm - N/A   Clear
6:53 AM 53.1 °F 50.0 °F 89% 30.09 in 10.0 mi South 3.5 mph - N/A   Clear
7:53 AM 59.0 °F 54.0 °F 83% 30.10 in 10.0 mi Calm Calm - N/A   Clear
8:53 AM 63.0 °F 54.0 °F 72% 30.11 in 10.0 mi Calm Calm - N/A   Clear
9:53 AM 68.0 °F 53.1 °F 59% 30.11 in 10.0 mi Calm Calm - N/A   Clear
10:53 AM 71.1 °F 52.0 °F 51% 30.12 in 10.0 mi Variable 3.5 mph - N/A   Clear
11:53 AM 72.0 °F 50.0 °F 46% 30.12 in 10.0 mi Variable 6.9 mph - N/A   Clear
12:53 PM 75.0 °F 48.9 °F 40% 30.12 in 10.0 mi North 11.5 mph 18.4 mph N/A   Clear
1:53 PM 75.9 °F 51.1 °F 42% 30.10 in 10.0 mi Variable 4.6 mph - N/A   Clear
2:53 PM 78.1 °F 51.1 °F 39% 30.09 in 10.0 mi North 5.8 mph - N/A   Clear
3:53 PM 78.1 °F 51.1 °F 39% 30.07 in 10.0 mi NNE 6.9 mph - N/A   Clear
4:53 PM 79.0 °F 52.0 °F 39% 30.06 in 10.0 mi North 6.9 mph - N/A   Clear
5:53 PM 78.1 °F 53.1 °F 42% 30.05 in 10.0 mi NNW 6.9 mph - N/A   Clear
6:53 PM 77.0 °F 54.0 °F 45% 30.05 in 10.0 mi North 4.6 mph - N/A   Clear
7:53 PM 72.0 °F 54.0 °F 53% 30.05 in 10.0 mi NNW 3.5 mph - N/A   Clear
8:53 PM 64.0 °F 57.0 °F 78% 30.05 in 10.0 mi Calm Calm - N/A   Clear
9:53 PM 62.1 °F 55.9 °F 80% 30.06 in 10.0 mi Calm Calm - N/A   Clear
10:53 PM 62.1 °F 55.0 °F 78% 30.06 in 10.0 mi Calm Calm - N/A   Clear
11:53 PM 60.1 °F 54.0 °F 80% 30.06 in 10.0 mi Calm Calm - N/A   Clear